Wind_Speed
39 39 41 43 43 44 43 44 45 47 48 52 56 59 60 64 67 71 74 77 81 82 82 83 83 84 85 85 86 87 86 86 86 85 85 84 85 86 86 87 87 88 89 90
40 41 40 38 38 39 42 45 47 49 50 53 56 59 60 62 66 69 72 74 78 82 84 86 86 88 89 90 89 90 90 90 90 90 89 89 89 89 89 89 90 92 91 89
38 37 37 38 39 41 44 47 50 51 54 57 62 64 69 65 68 70 71 75 78 80 83 84 86 87 88 90 92 92 93 94 94 93 93 92 93 93 93 93 94 94 94 93
35 37 37 40 42 44 47 52 56 59 62 66 65 70 68 68 70 70 71 73 77 79 84 86 87 89 89 90 89 90 90 91 92 93 93 91 90 90 90 91 93 94 97 97
37 38 40 43 46 50 56 60 64 66 68 66 66 67 66 67 67 68 67 66 67 70 75 81 84 86 89 91 91 90 89 88 88 89 90 88 85 83 83 85 88 89 91 93
37 39 42 47 52 57 62 66 67 66 62 63 61 58 59 59 62 62 61 60 61 63 66 70 74 77 79 83 86 88 90 89 89 88 87 85 84 84 82 82 83 84 87 87
42 45 48 51 53 59 63 60 56 55 54 53 51 49 50 50 51 50 50 49 51 55 60 65 67 68 70 72 75 79 84 87 88 88 89 88 87 85 83 82 83 84 83 83
46 49 53 54 59 63 57 52 54 52 48 47 41 39 40 40 39 38 34 35 35 38 41 45 50 54 58 60 61 65 68 72 76 82 87 88 87 88 87 85 84 84 84 83
49 52 57 62 63 64 56 54 55 46 43 42 38 31 33 34 33 32 33 33 34 35 38 39 41 41 43 47 46 47 50 55 59 64 68 74 78 81 82 82 82 82 83 84
52 56 60 61 64 61 54 53 48 41 41 38 37 29 32 31 29 30 32 32 32 33 34 35 36 38 34 39 41 40 43 46 48 51 54 59 63 67 68 70 73 77 79 80
55 59 59 58 57 56 49 49 45 37 38 33 35 30 30 31 29 30 31 30 30 31 32 33 33 33 33 34 35 38 41 42 43 44 47 51 54 56 58 60 63 66 68 70
57 58 59 55 53 54 49 46 46 37 35 35 32 31 30 32 28 29 31 31 32 32 33 36 37 34 33 31 33 35 34 34 37 40 43 46 45 46 47 49 51 54 58 61
56 59 56 54 55 55 47 42 43 41 37 37 32 32 29 30 27 27 28 30 32 31 31 32 32 31 29 28 30 31 32 35 37 36 38 37 35 35 32 36 41 46 51 58
57 59 56 55 56 55 46 40 42 41 40 39 33 34 31 27 25 28 29 30 31 30 28 30 32 28 26 25 26 32 33 33 33 29 27 26 26 26 30 33 40 44 52 55
57 60 57 56 56 56 48 43 42 43 44 39 35 31 30 27 26 28 30 32 34 33 32 31 29 28 24 22 22 28 34 33 24 20 17 17 21 27 34 38 40 43 46 48
61 60 58 60 55 54 49 42 43 44 48 40 35 29 28 28 25 29 29 28 29 31 31 31 25 22 20 19 26 29 25 18 17 17 15 18 27 34 35 33 35 32 39 39
60 60 58 63 57 51 44 43 44 44 45 40 36 30 28 30 26 28 31 28 27 31 33 35 29 22 18 22 24 17 13 14 12 12 16 25 34 31 29 27 27 26 30 28
58 58 61 61 57 50 44 41 43 44 44 40 34 32 28 29 29 27 31 30 28 30 28 29 22 20 20 19 15 10 9 8 12 17 24 31 30 27 23 16 17 17 18 15
60 62 63 56 51 47 42 42 42 43 44 42 30 31 29 26 26 27 27 29 23 26 26 23 21 19 18 12 10 10 13 16 20 25 29 23 21 21 15 9 10 12 18 17
64 65 55 52 48 43 37 42 42 45 43 41 28 30 28 25 25 25 24 24 22 24 24 20 17 13 11 11 10 11 14 20 24 23 21 17 14 12 9 8 13 16 24 25
62 55 52 51 44 40 34 37 42 44 44 42 31 29 30 23 24 25 25 24 22 21 23 19 13 8 8 11 11 14 17 15 15 16 14 12 8 5 9 17 21 27 34 35
59 56 52 49 40 35 37 37 42 44 42 40 35 29 29 24 21 22 23 20 22 18 19 11 6 7 6 7 12 10 12 17 16 9 5 3 4 11 19 25 33 41 47 49
59 58 53 48 42 41 38 39 41 43 40 35 32 30 28 25 20 19 20 18 18 14 10 4 8 4 8 14 13 18 32 31 36 39 24 17 21 23 30 39 46 51 53 55
65 60 55 49 49 46 43 43 44 41 35 34 31 24 22 24 21 18 16 16 13 9 2 5 6 5 19 25 26 27 27 32 42 43 42 36 34 34 43 47 51 56 63 71
62 60 56 52 52 47 48 49 44 39 35 34 29 27 19 21 22 19 14 13 6 2 8 11 9 13 22 26 21 25 29 35 39 41 43 42 43 41 48 57 63 66 73 73
62 62 60 53 49 50 51 49 42 39 35 32 31 28 24 22 22 20 11 10 1 7 17 16 22 26 32 28 24 28 36 35 36 34 45 43 41 49 54 60 64 66 69 67
Wind_Direction
284 283 283 283 284 284 284 283 282 280 279 276 275 275 273 273 272 271 269 266 264 263 261 261 259 257 256 256 256 256 255 256 256 257 257 257 258 258 259 260 261 260 261 261
288 287 287 287 285 284 282 282 282 281 280 280 281 279 279 277 275 273 271 270 268 266 264 261 259 259 259 258 256 256 256 256 255 255 256 257 257 258 259 260 261 262 261 260
289 288 287 286 286 287 286 285 285 285 285 285 286 285 282 283 280 277 274 271 268 265 263 263 262 260 259 258 258 258 258 257 257 256 256 255 255 256 256 257 258 260 261 261
286 287 288 289 290 290 291 290 289 289 290 291 288 287 285 283 282 280 277 272 267 264 262 262 261 260 260 259 258 257 257 257 257 257 257 255 255 256 256 255 256 257 258 259
290 291 291 293 295 294 292 290 290 290 291 290 288 286 284 281 279 279 279 276 270 266 265 264 263 264 262 259 257 257 257 256 256 257 257 256 254 254 255 254 253 254 255 256
291 291 294 296 297 296 299 297 296 293 289 287 285 281 280 277 280 282 281 278 273 271 268 265 265 265 263 261 260 259 258 257 257 257 257 254 253 252 254 255 255 256 254 254
297 298 299 300 303 309 312 305 301 298 295 291 287 286 286 283 286 285 283 282 278 274 271 270 270 268 267 266 263 261 260 259 258 256 255 255 256 255 255 257 258 258 258 258
298 303 307 310 313 319 315 310 311 305 297 294 289 292 296 297 296 294 292 288 285 282 279 276 273 272 270 268 264 262 260 259 259 258 257 257 257 256 257 258 256 256 257 258
303 308 311 315 317 322 320 317 317 304 299 298 295 298 305 303 298 296 294 293 293 294 293 291 283 276 276 276 271 266 262 260 259 258 257 257 257 256 255 257 257 257 257 257
306 311 314 318 319 321 319 320 319 303 302 302 300 307 309 305 307 301 295 294 295 293 288 285 288 287 280 275 272 267 264 263 261 261 260 259 258 259 259 258 258 258 258 258
306 310 314 320 318 320 317 324 321 308 307 301 307 315 313 307 316 307 306 307 303 305 304 301 302 291 283 276 269 263 261 262 265 265 265 263 263 263 263 262 262 261 261 261
305 311 317 318 320 321 319 325 326 312 309 305 307 317 316 314 315 315 317 328 327 319 311 313 307 295 284 281 276 270 269 270 269 267 265 267 266 265 264 261 259 260 260 259
306 312 316 317 318 319 317 324 324 316 308 306 304 313 310 317 314 313 319 332 333 327 316 308 305 296 285 282 279 276 273 268 265 265 265 264 261 257 260 258 256 257 255 254
305 309 313 316 316 317 311 315 318 321 307 302 299 307 311 315 311 310 310 312 315 322 320 316 313 304 286 277 275 274 277 278 274 270 260 258 267 270 271 269 268 264 257 255
301 307 309 313 312 314 308 313 314 319 318 295 293 297 304 307 316 319 319 314 313 320 324 321 317 303 295 285 284 287 287 280 275 270 259 270 286 292 290 284 271 265 260 256
299 303 305 308 309 311 305 309 314 318 321 309 290 290 303 299 312 317 313 309 311 313 319 322 319 299 296 292 294 296 289 276 281 263 281 294 296 291 283 279 271 261 258 254
296 296 298 304 304 306 301 304 312 315 319 315 290 287 298 304 305 309 307 307 317 321 327 327 321 315 300 295 291 293 286 280 280 284 284 281 292 286 281 277 268 254 251 239
286 288 293 298 300 302 299 303 310 313 318 320 285 283 292 305 305 306 307 310 316 314 325 327 328 322 305 294 299 292 301 312 297 292 289 295 287 275 275 270 264 246 221 205
283 286 292 293 298 297 297 304 310 311 316 321 285 279 286 303 308 313 310 307 312 312 330 330 332 325 308 312 303 286 308 312 303 300 299 285 278 272 269 240 239 213 165 167
278 283 286 289 296 291 294 302 311 311 312 320 289 279 278 294 303 311 313 315 324 322 327 331 329 316 313 309 325 322 308 305 306 303 300 298 280 269 242 186 191 166 145 146
273 275 281 287 289 282 285 299 302 306 306 314 302 284 275 283 296 303 313 325 328 320 326 331 323 341 318 332 332 323 318 316 323 323 314 293 272 223 169 167 163 150 138 140
272 274 276 281 279 273 283 294 295 301 301 312 307 289 278 275 286 302 307 324 328 324 328 349 22 356 335 354 347 355 0 35 45 26 42 68 122 140 148 149 144 139 136 139
273 272 274 273 272 272 279 285 288 294 300 309 309 294 284 273 278 295 305 327 329 327 338 55 46 45 45 66 44 67 104 93 80 73 77 87 105 122 131 136 137 136 136 136
270 270 268 266 271 271 274 276 280 289 297 296 305 304 283 273 275 284 300 324 330 325 124 117 95 53 99 85 76 97 103 94 97 86 78 79 97 115 126 129 132 133 132 130
264 262 265 265 269 268 270 272 276 284 285 287 292 296 276 261 269 277 290 316 333 297 146 137 107 88 116 99 98 87 94 107 97 99 99 96 101 113 125 129 130 134 134 133
259 259 262 265 266 265 266 268 274 275 277 275 278 284 277 260 264 269 281 311 304 175 150 139 116 116 114 107 103 107 105 91 92 100 102 95 100 118 128 135 137 139 140 140
Height
10791 10790 10788 10785 10782 10779 10775 10772 10769 10768 10766 10762 10758 10752 10752 10746 10743 10740 10739 10737 10735 10734 10735 10736 10738 10739 10740 10741 10743 10746 10748 10750 10752 10755 10757 10761 10761 10761 10761 10761 10762 10765 10768 10772
10781 10778 10777 10775 10773 10770 10766 10763 10758 10756 10752 10747 10742 10736 10734 10731 10727 10723 10719 10716 10713 10713 10712 10712 10714 10715 10716 10718 10721 10721 10724 10727 10730 10733 10736 10738 10739 10741 10743 10743 10743 10743 10746 10751
10771 10769 10767 10764 10762 10760 10756 10751 10747 10742 10737 10734 10724 10719 10711 10713 10707 10702 10698 10694 10691 10689 10686 10687 10688 10688 10690 10693 10695 10697 10700 10702 10704 10708 10712 10716 10716 10718 10721 10722 10723 10723 10725 10730
10762 10759 10758 10755 10752 10748 10745 10739 10732 10727 10722 10715 10712 10699 10696 10691 10683 10679 10674 10671 10667 10664 10661 10660 10660 10662 10665 10667 10669 10673 10675 10678 10680 10681 10685 10690 10692 10696 10698 10700 10701 10702 10703 10706
10753 10751 10748 10744 10741 10736 10730 10723 10717 10711 10704 10698 10691 10681 10675 10667 10662 10656 10651 10647 10643 10641 10640 10637 10636 10636 10637 10640 10645 10648 10650 10654 10656 10658 10662 10666 10671 10673 10675 10677 10678 10680 10681 10683
10742 10740 10738 10734 10729 10721 10712 10704 10696 10689 10684 10678 10670 10663 10656 10648 10641 10638 10633 10628 10625 10622 10619 10616 10615 10613 10613 10614 10619 10622 10626 10629 10632 10635 10637 10643 10648 10650 10653 10654 10657 10658 10662 10665
10732 10729 10726 10722 10715 10706 10695 10684 10676 10669 10663 10657 10652 10647 10640 10635 10629 10622 10617 10612 10608 10605 10601 10598 10597 10595 10593 10593 10596 10600 10601 10603 10607 10611 10612 10617 10622 10627 10631 10635 10636 10638 10641 10644
10721 10716 10711 10707 10701 10692 10680 10671 10664 10655 10648 10641 10641 10636 10628 10622 10617 10611 10606 10600 10596 10592 10588 10585 10579 10576 10574 10575 10576 10576 10578 10579 10582 10586 10589 10594 10600 10603 10607 10610 10613 10616 10618 10621
10709 10705 10698 10692 10685 10676 10666 10657 10649 10642 10637 10632 10628 10627 10620 10613 10608 10603 10597 10592 10587 10582 10577 10572 10568 10565 10563 10559 10559 10559 10560 10560 10563 10566 10568 10570 10573 10579 10584 10587 10591 10595 10597 10599
10698 10694 10688 10681 10672 10664 10655 10647 10640 10634 10630 10624 10616 10617 10610 10605 10600 10595 10589 10584 10580 10575 10570 10564 10559 10555 10553 10549 10546 10545 10545 10545 10547 10550 10553 10554 10557 10559 10563 10567 10569 10571 10572 10576
10688 10684 10678 10671 10662 10656 10648 10639 10630 10625 10621 10618 10610 10606 10602 10596 10593 10587 10582 10577 10572 10566 10560 10554 10550 10546 10542 10539 10536 10534 10533 10534 10536 10538 10537 10538 10541 10543 10545 10547 10547 10548 10551 10553
10676 10672 10667 10662 10653 10646 10639 10631 10622 10618 10614 10609 10605 10599 10594 10588 10586 10581 10575 10569 10562 10556 10551 10546 10541 10536 10532 10530 10527 10525 10524 10525 10526 10525 10524 10525 10527 10529 10530 10530 10529 10530 10532 10534
10665 10660 10655 10651 10644 10636 10632 10626 10617 10610 10605 10600 10599 10592 10588 10583 10579 10574 10569 10563 10558 10552 10546 10541 10534 10528 10524 10521 10518 10517 10517 10516 10515 10514 10514 10514 10514 10516 10515 10514 10514 10515 10516 10517
10654 10649 10646 10640 10633 10627 10623 10619 10611 10604 10598 10593 10590 10585 10581 10578 10573 10568 10564 10561 10556 10549 10541 10534 10526 10520 10517 10514 10511 10510 10509 10507 10504 10504 10504 10502 10502 10504 10502 10502 10500 10499 10498 10498
10644 10638 10636 10631 10625 10617 10612 10609 10604 10598 10592 10585 10581 10579 10575 10571 10567 10563 10558 10554 10548 10542 10535 10528 10522 10514 10510 10507 10505 10503 10500 10497 10496 10496 10496 10496 10495 10492 10490 10489 10486 10482 10482 10483
10632 10628 10624 10619 10617 10610 10602 10599 10594 10588 10583 10576 10574 10572 10568 10564 10562 10557 10553 10549 10544 10538 10531 10523 10516 10509 10504 10501 10498 10495 10492 10490 10491 10490 10489 10487 10486 10484 10480 10475 10471 10470 10468 10470
10621 10617 10614 10608 10606 10603 10597 10590 10585 10580 10574 10569 10564 10564 10560 10557 10555 10553 10547 10543 10538 10532 10526 10518 10510 10505 10499 10495 10492 10489 10486 10485 10485 10484 10482 10480 10478 10472 10469 10465 10461 10461 10460 10462
10609 10607 10605 10599 10595 10592 10586 10582 10577 10572 10566 10562 10557 10556 10554 10551 10548 10546 10541 10537 10533 10527 10522 10514 10507 10502 10497 10491 10488 10486 10484 10483 10480 10478 10475 10471 10466 10461 10459 10456 10455 10454 10455 10459
10596 10594 10593 10588 10585 10582 10576 10572 10567 10563 10558 10554 10550 10549 10547 10545 10543 10540 10537 10532 10529 10522 10517 10510 10504 10498 10493 10490 10486 10484 10483 10479 10475 10471 10465 10460 10456 10452 10451 10451 10451 10452 10454 10460
10580 10580 10579 10576 10575 10573 10568 10561 10557 10552 10550 10546 10543 10542 10541 10540 10538 10535 10531 10527 10521 10517 10513 10506 10500 10496 10493 10490 10487 10484 10480 10475 10469 10463 10457 10450 10447 10445 10446 10448 10449 10453 10456 10465
10565 10566 10565 10562 10563 10562 10560 10556 10549 10544 10540 10539 10536 10536 10535 10535 10534 10531 10526 10523 10518 10514 10508 10503 10499 10497 10494 10492 10488 10483 10477 10471 10464 10457 10451 10446 10443 10442 10443 10446 10451 10458 10463 10474
10550 10551 10550 10550 10551 10552 10549 10547 10541 10536 10534 10532 10529 10529 10529 10529 10528 10526 10523 10520 10515 10511 10506 10502 10500 10498 10495 10493 10488 10483 10477 10471 10463 10454 10449 10445 10443 10442 10445 10450 10455 10464 10471 10481
10533 10534 10535 10537 10538 10540 10539 10535 10531 10527 10527 10526 10522 10520 10520 10522 10522 10521 10518 10516 10512 10509 10505 10504 10501 10499 10497 10495 10490 10485 10482 10476 10470 10462 10458 10452 10449 10450 10453 10459 10467 10475 10483 10492
10513 10516 10518 10522 10522 10526 10526 10524 10521 10520 10520 10518 10516 10514 10513 10514 10516 10515 10514 10512 10509 10507 10505 10505 10503 10502 10501 10499 10497 10494 10491 10485 10478 10476 10474 10466 10463 10464 10467 10473 10482 10490 10499 10510
10492 10495 10499 10507 10509 10512 10508 10509 10512 10512 10511 10509 10509 10507 10506 10507 10508 10509 10509 10508 10506 10506 10506 10506 10506 10505 10505 10504 10502 10502 10499 10495 10492 10489 10486 10484 10482 10483 10486 10491 10499 10507 10515 10526
10469 10476 10483 10491 10496 10492 10492 10496 10501 10500 10502 10501 10499 10499 10499 10500 10501 10503 10505 10505 10503 10504 10505 10507 10508 10508 10509 10508 10509 10509 10507 10506 10505 10503 10500 10501 10500 10500 10503 10509 10513 10521 10530 10538